Eastsound, WA
on Thursday, November 29, 2012

Thursday
Previous Day Next Day
Daily Summary
 ActualAverage (KBLI)Record (KBLI)
Temperature
Mean Temperature °F 40°F  
Max Temperature 59°F 46°F 60°F (2012)
Min Temperature 50°F 34°F 12°F (2006)
Degree Days
Heating Degree Days 10 25  
Month to date heating degree days 628  
Cooling Degree Days 0 0  
Month to date cooling degree days 0  
Year to date cooling degree days 42  
Growing Degree Days4 (Base °F )  
Moisture
Dew Point 44°F   
Average Humidity 71    
Maximum Humidity 82    
Minimum Humidity 48    
Precipitation
Precipitation 0.00 in 0.18 in 0.85 in (2008)
Month to date precipitation 5.61  
Year to date precipitation 31.42  
Wind
Wind Speed 11 mph   
Max Wind Speed 15 mph   
Max Gust Speed 31 mph   
Visibility 10 miles   
Events Rain   

Key: T is trace of precipitation, MM is missing value
Source: NWS Daily Summary
Time(PST)TemperatureDew PointHumidity Pressure Visibility Wind DirectionWind SpeedGust SpeedPrecipitationEvents Conditions
12:15 AM 50.0°F 44.6°F 82% 29.63 in 10.0 miles South 11.5 mph 21.9 mph N/A   Clear
12:35 AM 51.8°F 44.6°F 76% 29.63 in 10.0 miles South 13.8 mph 20.7 mph N/A   Clear
12:55 AM 51.8°F 44.6°F 76% 29.63 in 10.0 miles South 13.8 mph 20.7 mph N/A   Clear
1:15 AM 51.8°F 44.6°F 76% 29.62 in 10.0 miles South 12.7 mph 21.9 mph N/A   Clear
1:35 AM 51.8°F 44.6°F 76% 29.61 in 10.0 miles South 13.8 mph 18.4 mph N/A   Clear
1:55 AM 51.8°F 44.6°F 76% 29.60 in 10.0 miles South 13.8 mph 21.9 mph N/A   Clear
2:15 AM 51.8°F 44.6°F 76% 29.60 in 10.0 miles South 15.0 mph 23.0 mph N/A   Clear
2:35 AM 51.8°F 44.6°F 76% 29.60 in 10.0 miles South 13.8 mph 21.9 mph N/A   Clear
2:55 AM 53.6°F 44.6°F 72% 29.59 in 10.0 miles South 12.7 mph 19.6 mph N/A   Clear
3:15 AM 53.6°F 44.6°F 72% 29.58 in 10.0 miles South 12.7 mph 20.7 mph N/A   Clear
3:35 AM 53.6°F 44.6°F 72% 29.57 in 10.0 miles South 10.4 mph 17.3 mph N/A   Clear
3:55 AM 55.4°F 44.6°F 67% 29.57 in 10.0 miles South 6.9 mph 17.3 mph N/A   Clear
4:15 AM 55.4°F 44.6°F 67% 29.54 in 10.0 miles South 5.8 mph - N/A   Clear
4:35 AM 57.2°F 42.8°F 59% 29.53 in 10.0 miles SSE 12.7 mph 25.3 mph N/A   Clear
4:55 AM 57.2°F 42.8°F 59% 29.52 in 10.0 miles South 9.2 mph 21.9 mph N/A   Clear
5:15 AM 57.2°F 42.8°F 59% 29.50 in 10.0 miles South 13.8 mph 25.3 mph N/A   Clear
5:35 AM 57.2°F 42.8°F 59% 29.49 in 10.0 miles SSE 9.2 mph 24.2 mph N/A   Clear
5:55 AM 57.2°F 41.0°F 55% 29.48 in 10.0 miles South 11.5 mph 20.7 mph N/A   Clear
6:15 AM 57.2°F 41.0°F 55% 29.47 in 10.0 miles SE 10.4 mph 23.0 mph N/A   Clear
6:35 AM 59.0°F 39.2°F 48% 29.46 in 10.0 miles SSE 12.7 mph 29.9 mph N/A   Clear
6:55 AM 59.0°F 39.2°F 48% 29.44 in 10.0 miles SE 9.2 mph 28.8 mph N/A   Clear
7:15 AM 57.2°F 41.0°F 55% 29.45 in 10.0 miles SSE 6.9 mph 19.6 mph N/A Rain Light Rain
7:35 AM 55.4°F 41.0°F 58% 29.45 in 10.0 miles South 6.9 mph - N/A   Clear
8:15 AM 53.6°F 42.8°F 67% 29.46 in 10.0 miles SSE 6.9 mph - N/A   Partly Cloudy
8:35 AM 51.8°F 44.6°F 76% 29.47 in 10.0 miles South 10.4 mph 21.9 mph N/A   Clear
8:55 AM 50.0°F 44.6°F 82% 29.48 in 10.0 miles South 10.4 mph 21.9 mph N/A   Partly Cloudy
9:15 AM 50.0°F 44.6°F 82% 29.48 in 10.0 miles South 9.2 mph 20.7 mph N/A   Partly Cloudy
9:35 AM 50.0°F 44.6°F 82% 29.47 in 10.0 miles South 13.8 mph 23.0 mph N/A   Partly Cloudy
9:55 AM 50.0°F 44.6°F 82% 29.47 in 10.0 miles South 8.1 mph 19.6 mph N/A   Clear
10:15 AM 53.6°F 44.6°F 72% 29.48 in 10.0 miles SSE 11.5 mph 21.9 mph N/A   Clear
10:35 AM 53.6°F 44.6°F 72% 29.47 in 10.0 miles SSE 15.0 mph 26.5 mph N/A   Clear
10:55 AM 53.6°F 44.6°F 72% 29.48 in 10.0 miles SSE 15.0 mph 24.2 mph N/A   Clear
11:15 AM 53.6°F 44.6°F 72% 29.48 in 10.0 miles South 15.0 mph 28.8 mph N/A   Clear
11:35 AM 53.6°F 44.6°F 72% 29.50 in 10.0 miles South 11.5 mph 25.3 mph N/A   Clear
11:55 AM 53.6°F 44.6°F 72% 29.51 in 10.0 miles South 10.4 mph 27.6 mph N/A   Scattered Clouds
12:15 PM 53.6°F 46.4°F 77% 29.52 in 10.0 miles South 12.7 mph 20.7 mph N/A   Mostly Cloudy
12:35 PM 53.6°F 46.4°F 77% 29.53 in 10.0 miles South 9.2 mph 19.6 mph N/A   Mostly Cloudy
12:55 PM 53.6°F 46.4°F 77% 29.53 in 10.0 miles South 12.7 mph 21.9 mph N/A   Overcast
1:15 PM 51.8°F 46.4°F 82% 29.53 in 10.0 miles South 15.0 mph 19.6 mph N/A   Mostly Cloudy
1:35 PM 51.8°F 46.4°F 82% 29.54 in 10.0 miles South 11.5 mph 19.6 mph N/A   Mostly Cloudy
1:55 PM 51.8°F 46.4°F 82% 29.53 in 10.0 miles South 9.2 mph 19.6 mph N/A   Mostly Cloudy
2:15 PM 51.8°F 46.4°F 82% 29.52 in 10.0 miles South 6.9 mph 16.1 mph N/A   Overcast
2:35 PM 51.8°F 46.4°F 82% 29.52 in 10.0 miles South 10.4 mph 17.3 mph N/A   Overcast
2:55 PM 51.8°F 46.4°F 82% 29.51 in 10.0 miles South 9.2 mph 18.4 mph N/A   Overcast
3:15 PM 51.8°F 46.4°F 82% 29.51 in 10.0 miles South 10.4 mph 18.4 mph N/A   Overcast
3:35 PM 51.8°F 46.4°F 82% 29.51 in 10.0 miles South 6.9 mph - N/A   Overcast
3:55 PM 51.8°F 46.4°F 82% 29.50 in 10.0 miles South 12.7 mph 21.9 mph N/A   Overcast
4:15 PM 51.8°F 46.4°F 82% 29.49 in 10.0 miles South 9.2 mph 20.7 mph N/A   Overcast
4:35 PM 51.8°F 44.6°F 76% 29.49 in 10.0 miles South 10.4 mph 20.7 mph N/A   Overcast
4:55 PM 51.8°F 44.6°F 76% 29.48 in 10.0 miles South 10.4 mph 24.2 mph N/A   Mostly Cloudy
5:15 PM 53.6°F 44.6°F 72% 29.47 in 10.0 miles South 10.4 mph 21.9 mph N/A   Mostly Cloudy
5:35 PM 53.6°F 44.6°F 72% 29.47 in 10.0 miles SSE 11.5 mph 18.4 mph N/A   Partly Cloudy
5:55 PM 53.6°F 44.6°F 72% 29.47 in 10.0 miles South 8.1 mph 21.9 mph N/A   Partly Cloudy
6:15 PM 53.6°F 44.6°F 72% 29.46 in 10.0 miles South 9.2 mph 17.3 mph N/A   Partly Cloudy
6:35 PM 53.6°F 44.6°F 72% 29.46 in 10.0 miles South 12.7 mph 18.4 mph N/A   Clear
6:55 PM 53.6°F 44.6°F 72% 29.45 in 10.0 miles SSE 6.9 mph - N/A   Clear
7:15 PM 53.6°F 44.6°F 72% 29.45 in 10.0 miles SSE 6.9 mph 19.6 mph N/A   Clear
7:35 PM 53.6°F 42.8°F 67% 29.45 in 10.0 miles South 6.9 mph - N/A   Clear
7:55 PM 53.6°F 42.8°F 67% 29.44 in 10.0 miles South 10.4 mph 16.1 mph N/A   Partly Cloudy
8:15 PM 53.6°F 42.8°F 67% 29.43 in 10.0 miles SSE 10.4 mph 24.2 mph N/A   Clear
8:35 PM 53.6°F 42.8°F 67% 29.42 in 9.0 miles South 12.7 mph 24.2 mph N/A Rain Light Rain
8:55 PM 53.6°F 44.6°F 72% 29.42 in 10.0 miles South 10.4 mph 24.2 mph N/A   Clear
9:15 PM 53.6°F 42.8°F 67% 29.41 in 10.0 miles South 11.5 mph 23.0 mph N/A   Clear
9:35 PM 53.6°F 42.8°F 67% 29.42 in 10.0 miles SSE 11.5 mph 21.9 mph N/A   Clear
9:55 PM 53.6°F 42.8°F 67% 29.42 in 10.0 miles SSE 8.1 mph 21.9 mph N/A   Clear
10:15 PM 53.6°F 42.8°F 67% 29.41 in 10.0 miles South 12.7 mph 21.9 mph N/A   Clear
10:35 PM 53.6°F 42.8°F 67% 29.40 in 10.0 miles South 11.5 mph 21.9 mph N/A   Clear
10:55 PM 53.6°F 42.8°F 67% 29.39 in 10.0 miles South 11.5 mph 31.1 mph N/A   Clear
11:15 PM 53.6°F 42.8°F 67% 29.38 in 10.0 miles SSE 13.8 mph 29.9 mph N/A   Clear
11:35 PM 55.4°F 41.0°F 58% 29.38 in 10.0 miles SSE 12.7 mph 29.9 mph N/A   Clear
11:55 PM 55.4°F 41.0°F 58% 29.37 in 10.0 miles SSE 9.2 mph 23.0 mph N/A   Clear
Moon Phase
Nov. 29 Dec. 06 Dec. 13 Dec. 20 Dec. 28
Sunrise:07:41 AM (PST) Moon Rise:05:25 PM (PST)11/29
Sunset:04:18 PM (PST) Moon Set:08:33 AM (PST)11/29

Copyright © 2014 The Weather Underground, Inc.